Mumbai, India

1:00 PM IST on October 01, 2016 (GMT +0530)
Chhatrapati Shivaji International

Weather History for VABB - November, 2013

Change the Weather History Date:

Saturday, November 9, 2013

  Actual Average Record
Temperature  
Mean Temperature 82 °F -  
Max Temperature 92 °F 91 °F 98 °F (2003)
Min Temperature 71 °F 75 °F 62 °F (2012)
Cooling Degree Days 16    
Growing Degree Days 32 (Base 50)    
Moisture  
Dew Point 69 °F    
Average Humidity 62    
Maximum Humidity 90    
Minimum Humidity 35    
Precipitation  
Precipitation 0.00 in - - ()
Sea Level Pressure  
Sea Level Pressure 29.85 in    
Wind  
Wind Speed 4 mph ()    
Max Wind Speed 10 mph    
Max Gust Speed -    
Visibility 1.4 miles    
Events      
Averages and records for this station are not official NWS values.
T = Trace of Precipitation, MM = Missing Value Source: Averaged Metar Reports

Daily Weather History Graph

Daily Weather History Graph

Search for Another Location

Airport or City:

Trip Planner

Search our weather history database for the weather conditions in past years. The results will help you decide how hot, cold, wet, or windy it might be!

Date:

Astronomy

Nov. 09, 2013 Rise Set
Actual Time 6:42 AM IST 6:01 PM IST
Civil Twilight 6:19 AM IST 6:24 PM IST
Nautical Twilight 5:53 AM IST 6:50 PM IST
Astronomical Twilight 5:27 AM IST 7:16 PM IST
Moon 12:05 PM IST (11/9) 11:52 PM IST (11/9)
Length of Visible Light 12h 04m
Length of Day
11h 19m
Waxing Crescent, 39% of the Moon is Illuminated
Nov 9
Waxing Crescent
Nov 10
First Quarter
Nov 17
Full
Nov 26
Last Quarter
Dec 3
New

Hourly Weather History & Observations

Time (IST) Temp. Heat Index Dew Point Humidity Pressure Visibility Wind Dir Wind Speed Gust Speed Precip Events Conditions
12:10 AM 80.6 °F 83.9 °F 69.8 °F 70% 29.86 in 1.2 mi East 5.8 mph - N/A   Haze
12:40 AM 80.6 °F 83.9 °F 69.8 °F 70% 29.86 in 1.2 mi ENE 3.5 mph - N/A   Haze
1:10 AM 80.6 °F 83.2 °F 68.0 °F 65% 29.83 in 1.4 mi NNE 4.6 mph - N/A   Haze
1:40 AM 80.6 °F 83.2 °F 68.0 °F 65% 29.83 in 1.4 mi East 3.5 mph - N/A   Haze
2:10 AM 80.6 °F 83.2 °F 68.0 °F 65% 29.83 in 1.4 mi Calm Calm - N/A   Haze
2:30 AM 74 °F - 70 °F 85% 29.83 in 1 mi Calm Calm - -   Haze
2:40 AM 80.6 °F 83.2 °F 68.0 °F 65% 29.83 in 1.4 mi South 5.8 mph - N/A   Haze
3:10 AM 80.6 °F 83.2 °F 68.0 °F 65% 29.83 in 1.3 mi Calm Calm - N/A   Haze
4:40 AM 78.8 °F - 69.8 °F 74% 29.83 in 1.2 mi Calm Calm - N/A   Haze
5:10 AM 78.8 °F - 69.8 °F 74% 29.83 in 1.4 mi SSW 3.5 mph - N/A   Haze
5:30 AM 72 °F - 70 °F 90% 29.84 in 1 mi Calm Calm - -   Haze
5:40 AM 78.8 °F - 68.0 °F 69% 29.83 in 1.5 mi Calm Calm - N/A   Haze
6:10 AM 78.8 °F - 68.0 °F 69% 29.86 in 1.3 mi East 3.5 mph - N/A   Haze
7:40 AM 78.8 °F - 69.8 °F 74% 29.89 in 1.1 mi NE 4.6 mph - N/A   Scattered Clouds
8:10 AM 78.8 °F - 68.0 °F 69% 29.89 in 1.2 mi ENE 4.6 mph - N/A   Haze
8:30 AM 77 °F - 70 °F 73% 29.91 in 1 mi Calm Calm - -   Haze
8:40 AM 80.6 °F 83.2 °F 68.0 °F 65% 29.92 in 1.3 mi NNE 3.5 mph - N/A   Haze
9:10 AM 82.4 °F 84.6 °F 66.2 °F 58% 29.92 in 1.5 mi ENE 5.8 mph - N/A   Haze
9:40 AM 84.2 °F 85.6 °F 64.4 °F 51% 29.92 in 1.5 mi NNE 8.1 mph - N/A   Smoke
10:10 AM 84.2 °F 86.6 °F 66.2 °F 55% 29.92 in 1.3 mi NE 6.9 mph - N/A   Smoke
11:10 AM 87.8 °F 89.4 °F 64.4 °F 46% 29.89 in 1.7 mi ENE 6.9 mph - N/A   Smoke
11:30 AM 89 °F - 68 °F 41% 29.89 in 1 mi North 3.5 mph - -   Smoke
12:10 PM 91.4 °F 94.0 °F 66.2 °F 43% 29.86 in 1.9 mi East 5.8 mph - N/A   Smoke
12:40 PM 91.4 °F 94.0 °F 66.2 °F 43% 29.86 in 1.9 mi ESE 9.2 mph - N/A   Smoke
1:10 PM 91.4 °F 93.2 °F 64.4 °F 41% 29.83 in 1.9 mi South 6.9 mph - N/A   Smoke
1:40 PM 91.4 °F 93.2 °F 64.4 °F 41% 29.83 in 2.2 mi ESE 8.1 mph - N/A   Smoke
2:10 PM 91.4 °F 94.0 °F 66.2 °F 43% 29.80 in 2.2 mi SE 5.8 mph - N/A   Smoke
2:30 PM 91 °F - 67 °F 35% 29.80 in 1 mi NW 3.5 mph - -   Smoke
2:40 PM 89.6 °F 93.4 °F 68.0 °F 49% 29.80 in 2.2 mi SW 10.4 mph - N/A   Smoke
3:10 PM 87.8 °F 92.6 °F 69.8 °F 55% 29.80 in 2.2 mi WSW 10.4 mph - N/A   Smoke
3:40 PM 87.8 °F 92.6 °F 69.8 °F 55% 29.80 in 2.2 mi West 10.4 mph - N/A   Smoke
4:40 PM 87.8 °F 90.4 °F 66.2 °F 49% 29.80 in 1.9 mi West 9.2 mph - N/A   Smoke
5:10 PM 87.8 °F 91.4 °F 68.0 °F 52% 29.80 in 1.9 mi SE 6.9 mph - N/A   Smoke
5:30 PM 86 °F - 71 °F 52% 29.80 in 1 mi North 3.5 mph - -   Smoke
5:40 PM 86.0 °F 89.4 °F 68.0 °F 55% 29.80 in 1.9 mi NW 8.1 mph - N/A   Smoke
6:10 PM 86.0 °F 91.8 °F 71.6 °F 62% 29.83 in 1.2 mi NW 5.8 mph - N/A   Smoke
6:40 PM 84.2 °F 89.6 °F 71.6 °F 66% 29.83 in 1.2 mi NW 4.6 mph - N/A   Smoke
7:10 PM 84.2 °F 89.6 °F 71.6 °F 66% 29.83 in 1.2 mi NW 6.9 mph - N/A   Smoke
7:40 PM 84.2 °F 89.6 °F 71.6 °F 66% 29.83 in 1.6 mi NNW 6.9 mph - N/A   Haze
8:10 PM 84.2 °F 90.9 °F 73.4 °F 70% 29.86 in 1.4 mi NNW 4.6 mph - N/A   Haze
8:30 PM 82 °F - 73 °F 69% 29.85 in 1 mi NW 3.5 mph - -   Smoke
8:40 PM 84.2 °F 90.9 °F 73.4 °F 70% 29.86 in 1.4 mi NNW 4.6 mph - N/A   Haze
9:10 PM 84.2 °F 90.9 °F 73.4 °F 70% 29.86 in 1.2 mi NE 6.9 mph - N/A   Haze
9:40 PM 82.4 °F 88.2 °F 73.4 °F 74% 29.86 in 1.2 mi NNE 3.5 mph - N/A   Haze
10:10 PM 82.4 °F 87.2 °F 71.6 °F 70% 29.86 in 1.1 mi NE 3.5 mph - N/A   Haze
10:40 PM 82.4 °F 87.2 °F 71.6 °F 70% 29.86 in 1.4 mi North 4.6 mph - N/A   Haze
11:10 PM 82.4 °F 86.3 °F 69.8 °F 66% 29.86 in 1.4 mi NNE 3.5 mph - N/A   Haze
11:30 PM 77 °F - 71 °F 78% 29.85 in 1 mi Calm Calm - -   Haze
11:40 PM 82.4 °F 86.3 °F 69.8 °F 66% 29.86 in 1.6 mi Calm Calm - N/A   Haze